Regional Weather Roundup
Issued by NWS Austin/San Antonio, TX

Home | Current Version | Previous Version | Text Only | Print | Product List | Glossary On
Versions: 1 2 3 4 5 6 7 8 9 10 11 12 13 14 15 16 17 18 19 20 21 22 23 24 25 26 27 28 29 30 31 32 33 34 35 36 37 38 39 40 41 42 43 44 45 46 47 48 49 50
586
ASUS44 KEWX 221302
RWREWX
SOUTH TEXAS REGIONAL WEATHER ROUNDUP
NATIONAL WEATHER SERVICE AUSTIN/SAN ANTONIO TX
800 AM CDT TUE AUG 22 2017

NOTE: "FAIR" INDICATED FEW OR NO CLOUDS BELOW 12,000 FEET WITH NO
SIGNIFICANT WEATHER AND/OR OBSTRUCTIONS TO VISIBILITY.

* - THESE STATIONS ARE NOT NWS OR FAA STATIONS...AND ARE NOT SUBJECT
    TO NWS AND FAA QUALITY CONTROL.

TXZ171-172-183>190-221400-
TEXAS HILL COUNTRY AND EDWARDS PLATEAU

CITY           SKY/WX    TMP DP  RH WIND       PRES   REMARKS
JUNCTION       CLEAR     73  67  81 CALM      30.10R
*LLANO         SUNNY     73  70  88 CALM      30.12R
BURNET         SUNNY     74  71  91 CALM      30.11R
*HORSESHOE BAY SUNNY     72  69  89 CALM      30.08S
*KERRVILLE     MOSUNNY   72  70  94 SE5       30.11R
*FREDERICKSBRG SUNNY     70  67  89 CALM      30.10S
*ROCKSPRINGS   NOT AVBL
*BOERNE STAGE  PTSUNNY  N/A N/A N/A SW6       30.11R
*CASTROVILLE   SUNNY     74  72  91 CALM      30.07S
HONDO          MOSUNNY   76  72  87 NE3       30.07R
*UVALDE        MOCLDY    73  70  88 CALM      30.08R
DEL RIO        CLEAR     75  69  81 E9        30.04R
LAUGHLIN AFB   PTCLDY    75  69  82 E9        30.06R
CARRIZO SPRGS  CLEAR     73  72  94 E3        30.02S
*EAGLE PASS    NOT AVBL
$$

TXZ173-191>194-202-209-217>225-228-221400-
CENTRAL AND SOUTH CENTRAL TEXAS

CITY           SKY/WX    TMP DP  RH WIND       PRES   REMARKS
GEORGETOWN     SUNNY     77  73  87 SW5       30.08R
AUSTIN/BERGSTM MOSUNNY   77  73  87 CALM      30.06R
AUSTIN/MABRY   SUNNY     78  73  84 CALM      30.07R
*AUSTIN/EXEC   SUNNY     75  75 100 CALM      30.07R
*LAGO VISTA    SUNNY     76  73  88 SW3       30.09S
SAN MARCOS     SUNNY     76  73  91 NW3       30.07R
NEW BRAUNFELS  MOSUNNY   76  74  93 CALM      30.05R
RANDOLPH AFB   SUNNY     76  76 100 W3        30.06R
PT SAN ANTONIO MOSUNNY   75  73  92 CALM      30.05R
SAN ANTONIO    MOSUNNY   78  73  84 SW6       30.07R
STINSON FIELD  MOSUNNY   78  75  90 CALM      30.04R
*LA GRANGE     MOSUNNY   75  75  99 CALM      30.04R
*GIDDINGS      SUNNY     72  71  96 CALM      30.07R
*GONZALES      SUNNY     75  75 100 CALM      30.05R
$$

TXZ163>164-176>182-195>201-210>213-226-227-235-221400-
SOUTHEAST TEXAS

CITY           SKY/WX    TMP DP  RH WIND       PRES   REMARKS
COLLEGE STN    SUNNY     77  74  90 CALM      30.06R
*BRYAN         SUNNY     79  76  92 CALM      30.07R
*CALDWELL      NOT AVBL
*CROCKETT      SUNNY     73  72  94 CALM      30.09R
*BRENHAM       SUNNY     76  75  98 CALM      30.06R
HUNTSVILLE     SUNNY     77  72  84 CALM      30.07R
CONROE         SUNNY     73  72  96 CALM      30.06R
HOUSTON BUSH   MOSUNNY   79  76  90 N3        30.05R
HOUSTON HOBBY  MOSUNNY   82  76  81 CALM      30.04R
*HOUSTON SW AP SUNNY     76  74  96 CALM      30.05R
PEARLAND       SUNNY     81  74  79 CALM      30.05R
HOUSTON HOOKS  SUNNY     78  76  93 CALM      30.05R
ELLINGTON FLD  MOSUNNY   82  75  78 CALM      30.06R
SUGAR LAND     MOSUNNY   78  77  96 CALM      30.04R
*HOUSTON EXEC  SUNNY     75  75 100 CALM      30.06R FOG
*CLEVELAND MUN SUNNY     74  73  98 CALM      30.06R
*WHARTON       SUNNY     74  73  96 CALM      30.05R
*COLUMBUS      FAIR      75  74  95 CALM      30.06R
*EAGLE LAKE    SUNNY     76  75  99 CALM      30.05R
$$

TXZ214>216-236>238-221400-
THE UPPER TEXAS COAST

CITY           SKY/WX    TMP DP  RH WIND       PRES   REMARKS
*ORANGE        SUNNY     77  77 100 CALM      30.07R
PORT ARTHUR    SUNNY    N/A N/A N/A NE5       30.04R
GALVESTON      SUNNY     83  78  85 CALM      30.04R HX  93
ANGLETON       SUNNY     77  76  96 CALM      30.04R
*BAY CITY      MOSUNNY   76  76 100 CALM      30.03R
PALACIOS       MOSUNNY   76  75  97 CALM      30.03R
$$

TXZ229>234-239>247-221400-
TEXAS COASTAL BEND AND RIO GRANDE PLAINS

CITY           SKY/WX    TMP DP  RH WIND       PRES   REMARKS
VICTORIA       MOSUNNY   76  73  91 N5        30.03R
*BEEVILLE      SUNNY    N/A N/A N/A CALM      30.03R
ROCKPORT       SUNNY     82  75  79 CALM      30.01R
*PORT ARANSAS  SUNNY     82  75  79 CALM      30.01R
*PORT LAVACA   SUNNY     75  72  88 N3        30.02S
*INGLESIDE     SUNNY     81  75  83 MISG      30.01R
CORPUS CHRISTI MOSUNNY   79  76  90 CALM      30.01R
CORPUS NAS     MOSUNNY   82  78  88 CALM      30.00R HX  91
*ROBSTOWN      SUNNY     80  74  83 CALM      30.02R
ALICE          SUNNY     77  73  87 NE3       30.01R
KINGSVILLE NAS NOT AVBL
COTULLA        CLEAR     77  72  84 E3        30.03R
*FAITH RANCH   CLEAR     77  73  88 E6        30.03S
LAREDO         CLEAR     77  73  87 E6        30.02R
$$

TXZ248>255-221400-
DEEP SOUTH TEXAS

CITY           SKY/WX    TMP DP  RH WIND       PRES   REMARKS
BROWNSVILLE    SUNNY     80  78  94 N3        29.99R
PORT ISABEL    SUNNY     80  77  90 CALM      29.98S
*SOUTH PADRE   NOT AVBL
HARLINGEN      SUNNY     79  77  94 CALM      29.98S
*HEBBRONVILLE  MOSUNNY   72  70  95 CALM      30.04R FOG
MCALLEN        SUNNY     81  75  82 E5        29.99S
*WESLACO       SUNNY     78  74  90 CALM      29.98S
FALFURRIAS     SUNNY     76  74  95 CALM      30.00S
EDINBURG       SUNNY     78  74  86 CALM      30.00R
*ZAPATA        CLEAR     76  73  88 CALM      30.00R
$$

TXZ213>215-236>238-242>244-246-247-251-254-255-221400-
CMAN STATIONS

STATION/POSITION TIME  TEMP    WIND        PRES    WAVE
                       AIR SEA DIR/SP/G            HT/PER
                 (UTC) (F)     (DEG/KT/KT) (MB)    (FT/S)
SABINE PASS      1230   81 90   60/  4/  5 1018.7
SEA RIM ST PARK  1200   78     360/  4/  4 1017.3
NORTH JETTY/GLS  1218      88   CALM  /  1 1016.3
EAGLE POINT      1218   80 88  320/  4/  4 1017.0
MORGANS POINT    1230   82 87   10/  3/  4 1016.9
MISSION/ARANSAS  1200          180/  4     1016.0
PORT O`CONNOR    1230   83     250/  3/  4 1015.9
PORT ARANSAS     1200   82 84  150/  3/  4 1015.8
MALAQUITE BEACH  1230   83 86  150/  2/  3 1015.3
BAFFIN BAY       1230   82 86              1015.9
PORT ISABEL      1230   82 84              1015.3
$$




USA.gov is the U.S. government's official web portal to all federal, state and local government web resources and services.